www.pogodaiklimat.ru

Погода и климат >> Архив погоды >> Россия >> Саратовская область >> Новоузенск


ПОГОДА в Новоузенске

  • Прогноз погоды в Новоузенске
  • Монитор погоды в Новоузенске

АРХИВ ПОГОДЫ в Новоузенске

Время (UTC), дата Ветер
(напр.,м/с)
 
Видим.   Явления Облачность Т
(С)
Тd
(С)
f
(%)
Тe
(С)
Тes
(С)
Комфортность P
(гПа)
Po
(гПа)
Тmin
(С)
Tmax
(С)
R
(мм)
R24
(мм)
S
(см)
00 14.09 ЮЗ 1 20 км 10/0
[Ac und]
+12.8 +2.7 50 +13 +13 1020.4 1017.1
03 14.09 ЮЗ 2 20 км 8/8 600 м
[Sc]
+13.7 +2.7 47 +13 +13 1019.9 1016.6 +11.5
06 14.09 ЮЗ 2 20 км 9/0
[Ac und]
+20.9 +3.6 32 +22 +24 комфорт 1019.6 1016.4
09 14.09 ЮЗ 3 20 км 8/8 600 м
[Cu med, cong]
+27.8 +1.9 19 +26 +28 жарко 1018.0 1014.8
12 14.09 ЮЗ 6 20 км 8/3 600 м
[Cu med, cong Ac As]
+28.2 +0.9 17 +26 +27 жарко 1016.6 1013.4
15 14.09 ЮЗ 3 20 км 10/0
[Ac As Ci sp]
+23.6 +1.6 24 +23 +23 комфорт 1016.0 1012.8 +29.0
18 14.09 ЮЗ 3 20 км 10/0
[Ac As Ci sp]
+20.4 +1.7 29 +21 +21 комфорт 1015.6 1012.4
21 14.09 ЮЗ 4 20 км 10/0
[Ac und]
+20.6 +0.6 26 +21 +21 комфорт 1015.2 1012.0
00 15.09 ЮЗ 3 20 км 10/0
[Ac As]
+19.0 +2.3 33 +19 +19 1014.4 1011.1
03 15.09 ЮЗ 2 20 км 10/10 600 м
[Sc]
+16.7 +3.6 42 +17 +17 1013.9 1010.7 +16.7
06 15.09 С 4 20 км 10/0
[Ac As]
+18.2 +10.1 59 +18 +19 1014.4 1011.1 +15.1
09 15.09 С 2 20 км 10/10 600 м
[Sc]
+14.5 +11.6 83 +14 +14 1015.3 1012.0
12 15.09 З 1 10 км слаб. дождь 10/0 600 м
[As op]
+14.4 +11.3 82 +15 +16 1014.9 1011.6
15 15.09 З 2 20 км {дождь} 9/9 600 м
[Sc]
+13.0 +11.6 91 +12 +12 1014.4 1011.1 +18.2 0.5
18 15.09 З 2 20 км {дождь} 3/3 600 м
[Sc]
+9.7 +8.7 93 +8 +8 1015.6 1012.2
21 15.09 З 2 20 км ясно +6.0 +4.6 91 +3 +3 1015.6 1012.2
00 16.09 З 2 20 км ясно +4.8 +3.8 93 +2 +2 1015.7 1012.3
03 16.09 ЮЗ 2 20 км 8/0
[Ac As Ci fib]
+4.9 +3.5 91 +2 +2 1015.3 1011.9 +3.6
06 16.09 ЮЗ 5 20 км 8/0
[As op]
+15.0 +6.7 58 +14 +15 1014.3 1011.0
09 16.09 ЮЗ 7-15
{14}
20 км 10/0
[As op Cs]
+20.9 +3.3 31 +21 +22 комфорт 1011.3 1008.1
12 16.09 ЮЗ 8-14
{16}
20 км 8/0
[Ac As Ci sp]
+23.0 +1.4 24 +22 +23 комфорт 1008.5 1005.3
15 16.09 ЮЗ 5
{14}
20 км 8/0
[Ac As Ci sp]
+20.8 +1.1 27 +21 +21 комфорт 1006.9 1003.7 +23.1
18 16.09 ЮЗ 4 20 км 6/0
[Ac trans]
+15.9 +0.3 35 +15 +15 1006.8 1003.5
21 16.09 ЮЗ 4 20 км 10/0
[Ci sp]
+16.2 +0.6 35 +16 +16 1005.9 1002.6
00 17.09 ЮЗ 3 20 км 10/0
[Cs]
+15.0 +1.1 39 +15 +15 1005.7 1002.4
03 17.09 ЮЗ 2 20 км 10/0
[Ac As]
+12.3 +2.0 49 +12 +12 1005.6 1002.3 +12.3
06 17.09 Ю 2 20 км 10/0
[Ac As]
+14.2 +2.7 46 +14 +16 1005.4 1002.1 +12.2
09 17.09 ЮЗ 5
{10}
20 км 10/0
[Ac As]
+21.1 +3.3 31 +21 +23 комфорт 1004.3 1001.1
12 17.09 СЗ 2 20 км 10/0
[Ac As]
+19.4 +6.9 44 +21 +22 комфорт 1003.8 1000.5
15 17.09 штиль 0 20 км 10/0
[Ac und]
+18.1 +8.1 52 +18 +18 1002.6 999.4 +22.2
18 17.09 Ю 2 10 км слаб. дождь 10/0 600 м
[As op]
+15.5 +9.9 69 +15 +15 1003.4 1000.2
21 17.09 З 1 20 км {дождь} 10/10 600 м
[Sc]
+14.5 +12.7 89 +15 +15 1003.3 1000.0
00 18.09 ЮЗ 3 20 км {дождь} 10/10 600 м
[Sc]
+13.3 +11.8 91 +12 +12 1003.2 1000.0
03 18.09 З 2 20 км 3/0
[Ac As]
+8.9 +7.8 93 +7 +7 1004.5 1001.1 +8.8 0.3
06 18.09 З 1 20 км ясно +17.7 +7.8 52 +19 +25 1005.6 1002.4
09 18.09 З 3 20 км 1/1 1000 м
[Cu hum]
+21.2 +2.9 30 +21 +28 комфорт 1005.3 1002.2
12 18.09 ЮЗ 5-10
{10}
20 км 4/3 1000 м
[Cu med, cong Ci fib]
+22.1 +1.6 26 +22 +23 комфорт 1003.9 1000.7
15 18.09 Ю 3
{10}
20 км 10/0
[Ac As Ci sp]
+20.5 +4.0 34 +21 +21 комфорт 1001.7 998.5 +22.4
18 18.09 Ю 2 20 км в посл. час дождь 10/10 600 м
[Sc]
+15.6 +12.4 81 +16 +16 999.1 995.9
21 18.09 З 6-13
{15}
4000 м ливневой дождь 10/10 600 м
[Cb cap]
+15.6 +15.2 97 +14 +14 997.6 994.3
00 19.09 З 6-11
{17}
20 км {ливн. осадки} 3/0
[Ci sp]
+9.9 +7.2 83 +6 +6 1001.4 998.0
03 19.09 ЮЗ 6-12
{13}
20 км 1/0
[Ac As]
+8.4 +5.8 84 +4 +4 1003.2 999.9 +8.3 3
06 19.09 З 8-17
{18}
20 км 9/9 600 м
[St]
+10.5 +5.2 70 +7 +7 1005.5 1002.2
09 19.09 З 5-13
{17}
20 км 9/9 600 м
[St]
+13.0 +7.2 68 +11 +12 1008.8 1005.5
12 19.09 З 4
{13}
20 км 8/8 600 м
[Sc]
+15.4 +6.6 56 +15 +15 1011.7 1008.4
15 19.09 З 2
{11}
20 км ясно +12.8 +5.4 61 +12 +12 1013.5 1010.2 +15.9
18 19.09 ЮЗ 3 20 км ясно +9.1 +6.3 83 +7 +7 1015.2 1011.8
21 19.09 ЮЗ 2 20 км 4/4 600 м
[Sc]
+7.4 +6.0 91 +5 +5 1015.4 1012.0
00 20.09 З 2 20 км 8/0
[Ac As]
+4.8 +3.6 92 +2 +2 1015.6 1012.2
03 20.09 ЮЗ 2 20 км 6/0
[Ac As Ci fib]
+3.4 +2.6 94 0 0 1016.2 1012.7 +3.3
06 20.09 З 1 20 км 1/0
[Ac cast]
+13.4 +8.3 71 +14 +19 1016.8 1013.5
09 20.09 ЮЗ 3 20 км 10/8 600 м
[Cu med, cong Ci fib]
+15.6 +5.1 50 +15 +16 1015.8 1012.5
12 20.09 ЮЗ 4 20 км 10/8 600 м
[Cb cap Ci sp]
+17.0 +1.8 36 +17 +17 1014.5 1011.2
15 20.09 С 2 20 км 10/6 600 м
[Sc diur, vesp Ac As]
+11.7 +6.8 72 +11 +11 1014.2 1010.9 +17.2
18 20.09 ЮВ 2 20 км 10/6 600 м
[Sc Ac As]
+9.0 +6.3 83 +7 +7 1014.0 1010.7

 

Местоположение метеостанции Новоузенск (Саратовская область, Россия): широта 50.43 долгота 48.13 высота над уровнем моря 36 м.

В архиве по умолчанию представлена погода в Новоузенске за последнюю неделю. Архивные данные за месяц целиком и за предыдущие месяцы, начиная с января 2011 года, Вы можете получить, выбрав интересующий диапазон дат из раскрывающегося списка и нажав кнопку "Ввод!".


*Определитесь, кто Вы:
робот инопланетянин человек

Внимание! Время в таблицах - всемирное. Для получения местного времени необходимо прибавить поправку, которая равна 4 ч.

Смотрите также архив погоды в соседних городах и на ближайших метеорологических станциях:

Погода в Александровом Гае (Саратовская область, Россия) (43 км)
Погода в Казталовке (Западно-Казахстанская область, Казахстан) (85 км)
Погода в Палласовке (Волгоградская область, Россия) (98 км)
Погода в Красном Куте (Саратовская область, Россия) (100 км)
Погода в Ершове (Саратовская область, Россия) (105 км)
Погода в Жалпактале (Западно-Казахстанская область, Казахстан) (128 км)
Погода в Жанаказане (Западно-Казахстанская область, Казахстан) (131 км)
Погода в Озинках (Саратовская область, Россия) (141 км)
Погода в Жанибеке (Западно-Казахстанская область, Казахстан) (149 км)
Погода в Эльтоне (Волгоградская область, Россия) (171 км)

Пояснения к столбцам:

Ветер - указаны скорость ветра в м/с - средняя за 10 мин, порывы в срок и между сроками (в фигурных скобках) и направление, откуда дует ветер: С - северный, СВ - северо-восточный, В - восточный, ЮВ - юго-восточный, Ю - южный, ЮЗ - юго-западный, З - западный, СЗ - северо-западный.
Видимость - горизонтальная дальность видимости в метрах или километрах. При видимости от 1 до 10 км при отсутствии осадков обычно наблюдается дымка, при ухудшении видимости до 1 км и менее - туман. В сухую погоду видимость может ухудшаться дымом, пылью или мглою.
Явления - указаны атмосферные явления, наблюдавшиеся в срок или в последний час перед сроком; фигурными скобками обозначены явления, наблюдавшиеся между сроками (за 1-3 часа до срока); квадратными скобками обозначены град или гололедные отложения с указанием их диаметра в мм.
Облачность - указаны через наклонную черту общая и нижняя облачность в баллах и высота нижней границы облаков в метрах; квадратными скобками обозначены формы облаков: Ci - перистые, Cs - перисто-слоистые, Cc - перисто-кучевые, Ac - высококучевые, As - высокослоистые, Sc - слоисто-кучевые, Ns - слоисто-дождевые, Cu - кучевые, Cb - кучево-дождевые. Подробнее классификацию облаков см. в Атласе облаков (PDF).
T - Температура воздуха - температура, измеренная на высоте 2 м над землей.
Td - Температура точки росы - температура, при понижении до которой содержащийся в воздухе водяной пар достигнет насыщения.
f - Относительная влажность воздуха - влажноcть воздуха, измеренная на высоте 2 м над землей.
Te - Эффективная температура - температура, которую ощущает одетый по сезону человек в тени. Характеристика душности погоды. При расчете учитывается влияние влажности воздуха и скорости ветра на теплоощущения человека.
Tes - Эффективная температура на солнце - температура, которую ощущает человек, с поправкой на солнечный нагрев. Характеристика знойности погоды. Зависит от высоты солнца над горизонтом, облачности и скорости ветра. Ночью, в пасмурную погоду, а также при ветре 12 м/с и более поправка равна нулю.
P - Атмосферное давление - приведенное к уровню моря атмосферное давление.
Po - Атмосферное давление - измеренное на уровне метеостанции атмосферное давление.
Tmin - Минимальная температура - минимум температуры воздуха на высоте 2 м над землей.
Tmax - Максимальная температура - максимум температуры воздуха на высоте 2 м над землей.
R - Количество осадков - Количество выпавших осадков за период времени, мм. При наведении курсора мыши на число - период времени, за который выпало указанное количество осадков.
R24 - Количество осадков - Количество выпавших осадков за 24 часа, мм.
S - Снежный покров - Высота снежного покрова, см. При наведении курсора мыши на число - состояние снежного покрова и степень покрытия местности в баллах.